EZY9 EGHQ-EGHQ

Flight info

Callsign EZY9
Flight time N/A
Altitude 1500
Route NQY
Aircraft A320/M-SDE2E3FGHIJ1RWXYZ/LB1

Departure

Time 2026-05-09 19:31
Airport Cornwall Airport Newquay (EGHQ)

Arrival

Time N/A
Airport Cornwall Airport Newquay (EGHQ)
Time Latitude Longitude Altitude Speed Heading
2026-05-09 19:06 50.44241 -5.00687 327 ft 0 kts
2026-05-09 19:13 50.44243 -5.00679 327 ft 0 kts
2026-05-09 19:22 50.44255 -5.00676 327 ft 7 kts
2026-05-09 19:22 50.44300 -5.00655 327 ft 3 kts 52°
2026-05-09 19:23 50.44301 -5.00654 329 ft 0 kts 54°
2026-05-09 19:23 50.44301 -5.00653 329 ft 0 kts 54°
2026-05-09 19:24 50.44304 -5.00645 329 ft 5 kts 59°
2026-05-09 19:24 50.44334 -5.00541 333 ft 12 kts 66°
2026-05-09 19:25 50.44370 -5.00411 335 ft 14 kts 66°
2026-05-09 19:25 50.44415 -5.00255 336 ft 17 kts 68°
2026-05-09 19:25 50.44461 -5.00068 343 ft 18 kts 81°
2026-05-09 19:25 50.44413 -4.99885 346 ft 20 kts 120°
2026-05-09 19:26 50.44339 -4.99689 353 ft 21 kts 121°
2026-05-09 19:26 50.44267 -4.99497 364 ft 20 kts 120°
2026-05-09 19:26 50.44191 -4.99293 359 ft 24 kts 120°
2026-05-09 19:26 50.44102 -4.99057 368 ft 26 kts 121°
2026-05-09 19:27 50.44007 -4.98807 371 ft 27 kts 121°
2026-05-09 19:27 50.43919 -4.98573 379 ft 22 kts 121°
2026-05-09 19:27 50.43836 -4.98355 382 ft 25 kts 121°
2026-05-09 19:27 50.43745 -4.98113 388 ft 26 kts 120°
2026-05-09 19:28 50.43643 -4.97900 393 ft 21 kts 145°
2026-05-09 19:28 50.43559 -4.97851 395 ft 4 kts 175°
2026-05-09 19:28 50.43555 -4.97851 395 ft 0 kts 178°
2026-05-09 19:29 50.43551 -4.97850 395 ft 3 kts 178°
2026-05-09 19:29 50.43496 -4.97860 396 ft 14 kts 196°
2026-05-09 19:29 50.43492 -4.97977 393 ft 0 kts 300°
2026-05-09 19:29 50.43494 -4.97981 393 ft 0 kts 300°
2026-05-09 19:30 50.43494 -4.97982 393 ft 0 kts 300°
2026-05-09 19:30 50.43496 -4.97987 393 ft 0 kts 300°
2026-05-09 19:30 50.43497 -4.97989 393 ft 0 kts 300°
2026-05-09 19:31 50.43500 -4.97997 392 ft 5 kts 300°
2026-05-09 19:31 50.43640 -4.98372 375 ft 91 kts 300°
2026-05-09 19:31 50.44108 -4.99619 457 ft 161 kts 307°
2026-05-09 19:31 50.44688 -5.01149 1302 ft 167 kts 308°
2026-05-09 19:32 50.45323 -5.02782 2055 ft 180 kts 309°
2026-05-09 19:32 50.46012 -5.04501 2024 ft 186 kts 309°
2026-05-09 19:32 50.46672 -5.06138 2012 ft 177 kts 309°
2026-05-09 19:32 50.47321 -5.07758 2010 ft 174 kts 309°
2026-05-09 19:33 50.47963 -5.09369 2007 ft 173 kts 309°
2026-05-09 19:33 50.48733 -5.10733 1990 ft 160 kts 342°
2026-05-09 19:33 50.49726 -5.10723 1989 ft 142 kts 36°
2026-05-09 19:33 50.50159 -5.09411 1985 ft 146 kts 89°
2026-05-09 19:34 50.49735 -5.07908 1981 ft 154 kts 111°
2026-05-09 19:34 50.49204 -5.06444 1955 ft 154 kts 112°
2026-05-09 19:34 50.48663 -5.04995 1942 ft 154 kts 112°
2026-05-09 19:34 50.48111 -5.03537 1925 ft 156 kts 112°
2026-05-09 19:35 50.47559 -5.02060 1926 ft 157 kts 112°
2026-05-09 19:35 50.47010 -5.00575 1939 ft 157 kts 112°
2026-05-09 19:35 50.46470 -4.99101 1945 ft 158 kts 112°
2026-05-09 19:35 50.45915 -4.97614 1933 ft 158 kts 112°
2026-05-09 19:36 50.45367 -4.96126 1920 ft 157 kts 112°
2026-05-09 19:36 50.44830 -4.94631 1904 ft 157 kts 111°
2026-05-09 19:36 50.44310 -4.93128 1914 ft 156 kts 110°
2026-05-09 19:36 50.43831 -4.91707 1800 ft 142 kts 112°
2026-05-09 19:37 50.42980 -4.90984 1600 ft 151 kts 179°
2026-05-09 19:37 50.42163 -4.91911 1484 ft 149 kts 248°
2026-05-09 19:37 50.41955 -4.93444 1293 ft 140 kts 276°
2026-05-09 19:37 50.42170 -4.94810 1067 ft 122 kts 317°
2026-05-09 19:38 50.42660 -4.95868 852 ft 122 kts 309°
2026-05-09 19:38 50.43095 -4.97021 628 ft 120 kts 310°
2026-05-09 19:38 50.43567 -4.98201 1145 ft 126 kts 316°
2026-05-09 19:38 50.44129 -4.99380 1880 ft 148 kts 317°
2026-05-09 19:39 50.44880 -5.00770 1997 ft 178 kts 324°
2026-05-09 19:39 50.45945 -5.01572 1979 ft 165 kts
2026-05-09 19:39 50.46991 -5.01151 1917 ft 154 kts 39°
2026-05-09 19:39 50.47552 -4.99766 1883 ft 156 kts 76°
2026-05-09 19:40 50.47353 -4.98076 1831 ft 167 kts 114°
2026-05-09 19:40 50.46725 -4.96531 1810 ft 168 kts 115°
2026-05-09 19:40 50.46108 -4.94983 1900 ft 167 kts 114°
2026-05-09 19:40 50.45489 -4.93430 1919 ft 168 kts 114°
2026-05-09 19:41 50.44945 -4.91850 1894 ft 166 kts 110°
2026-05-09 19:41 50.44355 -4.90284 1814 ft 172 kts 128°
2026-05-09 19:41 50.43212 -4.89801 1808 ft 178 kts 188°
2026-05-09 19:41 50.42306 -4.90995 1425 ft 169 kts 255°
2026-05-09 19:42 50.42041 -4.92668 1230 ft 151 kts 263°
2026-05-09 19:42 50.41996 -4.94211 991 ft 132 kts 296°
2026-05-09 19:42 50.42453 -4.95370 848 ft 123 kts 311°
2026-05-09 19:42 50.42918 -4.96499 715 ft 124 kts 308°
2026-05-09 19:43 50.43356 -4.97682 723 ft 131 kts 320°
2026-05-09 19:43 50.43837 -4.98840 1709 ft 137 kts 317°
2026-05-09 19:43 50.44478 -5.00334 1977 ft 190 kts 306°
2026-05-09 19:43 50.45076 -5.02310 1995 ft 205 kts 300°
2026-05-09 19:44 50.45633 -5.04320 1994 ft 196 kts 299°
2026-05-09 19:44 50.46176 -5.06279 2213 ft 196 kts 300°
2026-05-09 19:44 50.46739 -5.08282 2453 ft 216 kts 299°
2026-05-09 19:44 50.47428 -5.10617 2724 ft 247 kts 299°
2026-05-09 19:45 50.48178 -5.13094 2934 ft 254 kts 299°
2026-05-09 19:45 50.48953 -5.15604 3006 ft 255 kts 299°
2026-05-09 19:45 50.49736 -5.18104 3012 ft 255 kts 298°
2026-05-09 19:45 50.50138 -5.20825 3221 ft 265 kts 268°
2026-05-09 19:46 50.49661 -5.23626 4283 ft 270 kts 243°
2026-05-09 19:46 50.48503 -5.25907 4765 ft 265 kts 214°
2026-05-09 19:46 50.46892 -5.27067 4957 ft 256 kts 187°
2026-05-09 19:46 50.45157 -5.27086 5065 ft 247 kts 162°
2026-05-09 19:47 50.43607 -5.26068 5082 ft 240 kts 141°
2026-05-09 19:47 50.42456 -5.24243 5082 ft 233 kts 119°
2026-05-09 19:47 50.41846 -5.21937 5083 ft 230 kts 99°
2026-05-09 19:47 50.41821 -5.19463 5084 ft 226 kts 79°